Time,TemperatureF,DewpointF,PressureIn,WindDirection,WindDirectionDegrees,WindSpeedMPH,WindSpeedGustMPH,Humidity,HourlyPrecipIn,Conditions,Clouds,dailyrainin,SoftwareType,DateUTC
2013-02-19 00:00:00,51.8,40.0,30.27,SW,215,17.0,19.0,64,0.00,,---,0.00,VWS V14.01,2013-02-19 05:00:00,
2013-02-19 00:05:00,51.9,40.9,30.27,SW,217,15.0,19.0,66,0.00,,---,0.00,VWS V14.01,2013-02-19 05:05:00,
2013-02-19 00:10:00,52.1,40.3,30.27,SW,217,18.0,23.0,64,0.00,,---,0.00,VWS V14.01,2013-02-19 05:10:00,
2013-02-19 00:15:00,52.1,40.7,30.27,SSW,212,18.0,19.0,65,0.00,,---,0.00,VWS V14.01,2013-02-19 05:15:00,
2013-02-19 00:20:00,52.1,41.1,30.26,SSW,213,14.0,19.0,66,0.00,,---,0.00,VWS V14.01,2013-02-19 05:20:00,
2013-02-19 00:25:00,52.2,42.0,30.26,SW,220,17.0,18.0,68,0.00,,---,0.00,VWS V14.01,2013-02-19 05:25:00,
2013-02-19 00:30:00,52.2,41.6,30.26,SW,225,17.0,18.0,67,0.00,,---,0.00,VWS V14.01,2013-02-19 05:30:00,
2013-02-19 00:35:00,52.2,41.6,30.26,SW,221,15.0,19.0,67,0.00,,---,0.00,VWS V14.01,2013-02-19 05:35:00,
2013-02-19 00:40:00,52.3,42.1,30.26,SW,227,16.0,17.0,68,0.00,,---,0.00,VWS V14.01,2013-02-19 05:40:00,
2013-02-19 00:45:00,52.3,42.1,30.26,SW,224,15.0,16.0,68,0.00,,---,0.00,VWS V14.01,2013-02-19 05:45:00,
2013-02-19 00:50:00,52.4,41.8,30.26,SW,225,15.0,18.0,67,0.00,,---,0.00,VWS V14.01,2013-02-19 05:50:00,
2013-02-19 00:55:00,52.4,42.2,30.26,SW,232,13.0,16.0,68,0.00,,---,0.00,VWS V14.01,2013-02-19 05:55:00,
2013-02-19 01:00:00,52.5,42.3,30.26,SW,236,13.0,16.0,68,0.00,,---,0.00,VWS V14.01,2013-02-19 06:00:00,
2013-02-19 01:05:00,52.5,42.6,30.26,SW,235,12.0,16.0,69,0.00,,---,0.00,VWS V14.01,2013-02-19 06:05:00,
2013-02-19 01:10:00,52.5,42.6,30.26,WSW,238,13.0,14.0,69,0.00,,---,0.00,VWS V14.01,2013-02-19 06:10:00,
2013-02-19 01:15:00,52.5,43.0,30.26,WSW,241,12.0,14.0,70,0.00,,---,0.00,VWS V14.01,2013-02-19 06:15:00,
2013-02-19 01:20:00,52.4,43.3,30.25,WSW,242,13.0,14.0,71,0.00,,---,0.00,VWS V14.01,2013-02-19 06:20:00,
2013-02-19 01:25:00,52.2,43.5,30.25,WSW,240,10.0,13.0,72,0.00,,---,0.00,VWS V14.01,2013-02-19 06:25:00,
2013-02-19 01:30:00,52.3,43.2,30.25,SW,234,10.0,11.0,71,0.00,,---,0.00,VWS V14.01,2013-02-19 06:30:00,
2013-02-19 01:35:00,52.4,43.7,30.25,SW,232,10.0,12.0,72,0.00,,---,0.00,VWS V14.01,2013-02-19 06:35:00,
2013-02-19 01:40:00,52.5,44.1,30.25,SW,232,10.0,11.0,73,0.00,,---,0.00,VWS V14.01,2013-02-19 06:40:00,
2013-02-19 01:45:00,52.5,44.1,30.25,SW,232,9.0,12.0,73,0.00,,---,0.00,VWS V14.01,2013-02-19 06:45:00,
2013-02-19 01:50:00,52.4,44.0,30.24,SW,232,9.0,12.0,73,0.00,,---,0.00,VWS V14.01,2013-02-19 06:50:00,
2013-02-19 01:55:00,52.5,44.1,30.24,SW,226,10.0,11.0,73,0.00,,---,0.00,VWS V14.01,2013-02-19 06:55:00,
2013-02-19 02:00:00,52.6,44.6,30.24,SW,223,10.0,11.0,74,0.00,,---,0.00,VWS V14.01,2013-02-19 07:00:00,
2013-02-19 02:05:00,52.6,44.9,30.23,SW,221,11.0,11.0,75,0.00,,---,0.00,VWS V14.01,2013-02-19 07:05:00,
2013-02-19 02:10:00,52.6,44.9,30.23,SW,219,10.0,11.0,75,0.00,,---,0.00,VWS V14.01,2013-02-19 07:10:00,
2013-02-19 02:15:00,52.7,45.0,30.23,SSW,213,9.0,11.0,75,0.00,,---,0.00,VWS V14.01,2013-02-19 07:15:00,
2013-02-19 02:20:00,52.7,45.4,30.23,SSW,211,6.0,10.0,76,0.00,,---,0.00,VWS V14.01,2013-02-19 07:20:00,
2013-02-19 02:25:00,52.8,45.5,30.23,SSW,209,6.0,9.0,76,0.00,,---,0.00,VWS V14.01,2013-02-19 07:25:00,
2013-02-19 02:30:00,52.8,45.5,30.23,SSW,209,5.0,7.0,76,0.00,,---,0.00,VWS V14.01,2013-02-19 07:30:00,
2013-02-19 02:35:00,52.8,45.5,30.22,SSW,209,5.0,7.0,76,0.00,,---,0.00,VWS V14.01,2013-02-19 07:35:00,
2013-02-19 02:40:00,52.8,45.8,30.22,SSW,209,5.0,7.0,77,0.00,,---,0.00,VWS V14.01,2013-02-19 07:40:00,
2013-02-19 02:45:00,52.9,45.9,30.22,SSW,209,6.0,7.0,77,0.00,,---,0.00,VWS V14.01,2013-02-19 07:45:00,
2013-02-19 02:50:00,52.9,45.9,30.22,SSW,209,6.0,6.0,77,0.00,,---,0.00,VWS V14.01,2013-02-19 07:50:00,
2013-02-19 02:55:00,52.9,46.2,30.22,SSW,209,4.0,6.0,78,0.00,,---,0.00,VWS V14.01,2013-02-19 07:55:00,
2013-02-19 03:00:00,52.8,46.1,30.22,SSW,209,5.0,5.0,78,0.00,,---,0.00,VWS V14.01,2013-02-19 08:00:00,
2013-02-19 03:05:00,52.8,46.1,30.21,SSW,209,4.0,6.0,78,0.00,,---,0.00,VWS V14.01,2013-02-19 08:05:00,
2013-02-19 03:10:00,52.8,46.1,30.21,SSW,209,4.0,6.0,78,0.00,,---,0.00,VWS V14.01,2013-02-19 08:10:00,
2013-02-19 03:15:00,52.8,46.1,30.21,SSW,209,4.0,5.0,78,0.00,,---,0.00,VWS V14.01,2013-02-19 08:15:00,
2013-02-19 03:20:00,52.7,46.0,30.20,SSW,209,4.0,6.0,78,0.00,,---,0.00,VWS V14.01,2013-02-19 08:20:00,
2013-02-19 03:25:00,52.6,46.3,30.20,SSW,209,4.0,5.0,79,0.00,,---,0.00,VWS V14.01,2013-02-19 08:25:00,
2013-02-19 03:30:00,52.6,46.3,30.20,SSW,209,4.0,5.0,79,0.00,,---,0.00,VWS V14.01,2013-02-19 08:30:00,
2013-02-19 03:35:00,52.6,46.3,30.19,SSW,209,4.0,6.0,79,0.00,,---,0.00,VWS V14.01,2013-02-19 08:35:00,
2013-02-19 03:40:00,52.8,46.5,30.19,SSW,209,5.0,6.0,79,0.00,,---,0.00,VWS V14.01,2013-02-19 08:40:00,
2013-02-19 03:45:00,52.8,46.5,30.19,SSW,209,4.0,5.0,79,0.00,,---,0.00,VWS V14.01,2013-02-19 08:45:00,
2013-02-19 03:50:00,52.7,46.4,30.19,SSW,209,0.0,5.0,79,0.00,,---,0.00,VWS V14.01,2013-02-19 08:50:00,
2013-02-19 03:55:00,52.6,46.3,30.19,SSW,209,0.0,0.0,79,0.00,,---,0.00,VWS V14.01,2013-02-19 08:55:00,
2013-02-19 04:00:00,52.7,46.7,30.19,SSW,209,0.0,0.0,80,0.00,,---,0.00,VWS V14.01,2013-02-19 09:00:00,
2013-02-19 04:05:00,52.6,46.6,30.19,SSW,209,0.0,0.0,80,0.00,,---,0.00,VWS V14.01,2013-02-19 09:05:00,
2013-02-19 04:10:00,52.5,46.5,30.19,SSW,209,0.0,0.0,80,0.00,,---,0.00,VWS V14.01,2013-02-19 09:10:00,
2013-02-19 04:15:00,52.2,45.9,30.19,SSW,209,0.0,0.0,79,0.00,,---,0.00,VWS V14.01,2013-02-19 09:15:00,
2013-02-19 04:20:00,52.5,46.5,30.18,SSW,209,0.0,0.0,80,0.00,,---,0.00,VWS V14.01,2013-02-19 09:20:00,
2013-02-19 04:25:00,52.6,46.9,30.18,SSW,209,0.0,0.0,81,0.00,,---,0.00,VWS V14.01,2013-02-19 09:25:00,
2013-02-19 04:30:00,52.5,47.2,30.18,SSW,209,0.0,0.0,82,0.00,,---,0.00,VWS V14.01,2013-02-19 09:30:00,
2013-02-19 04:35:00,52.3,47.3,30.18,SSW,209,0.0,0.0,83,0.00,,---,0.00,VWS V14.01,2013-02-19 09:35:00,
2013-02-19 04:40:00,52.2,47.5,30.18,SSW,209,0.0,0.0,84,0.00,,---,0.00,VWS V14.01,2013-02-19 09:40:00,
2013-02-19 04:46:00,52.1,47.4,30.18,SSW,201,0.0,0.0,84,0.00,,---,0.00,VWS V14.01,2013-02-19 09:46:00,
2013-02-19 04:51:00,51.9,47.2,30.17,SSW,198,0.0,0.0,84,0.00,,---,0.00,VWS V14.01,2013-02-19 09:51:00,
2013-02-19 04:56:00,51.9,47.5,30.17,South,182,7.0,8.0,85,0.00,,---,0.00,VWS V14.01,2013-02-19 09:56:00,
2013-02-19 05:01:00,51.9,47.5,30.17,SSE,167,6.0,8.0,85,0.00,,---,0.00,VWS V14.01,2013-02-19 10:01:00,
2013-02-19 05:06:00,51.8,47.4,30.16,SSE,163,6.0,7.0,85,0.00,,---,0.00,VWS V14.01,2013-02-19 10:06:00,
2013-02-19 05:11:00,51.7,47.3,30.16,SSE,161,0.0,7.0,85,0.00,,---,0.00,VWS V14.01,2013-02-19 10:11:00,
2013-02-19 05:16:00,51.9,47.2,30.16,SSE,161,0.0,0.0,84,0.00,,---,0.00,VWS V14.01,2013-02-19 10:16:00,
2013-02-19 05:21:00,51.7,47.0,30.16,SSE,161,0.0,0.0,84,0.00,,---,0.00,VWS V14.01,2013-02-19 10:21:00,
2013-02-19 05:26:00,51.2,46.8,30.16,SSE,161,0.0,0.0,85,0.00,,---,0.00,VWS V14.01,2013-02-19 10:26:00,
2013-02-19 05:31:00,51.1,47.4,30.16,SSE,159,0.0,0.0,87,0.00,,---,0.00,VWS V14.01,2013-02-19 10:31:00,
2013-02-19 05:36:00,50.9,47.2,30.16,SSE,158,4.0,6.0,87,0.00,,---,0.00,VWS V14.01,2013-02-19 10:36:00,
2013-02-19 05:41:00,50.9,47.5,30.16,SSE,153,7.0,9.0,88,0.00,,---,0.00,VWS V14.01,2013-02-19 10:41:00,
2013-02-19 05:46:00,51.1,47.7,30.16,SE,145,9.0,11.0,88,0.00,,---,0.00,VWS V14.01,2013-02-19 10:46:00,
2013-02-19 05:50:00,51.4,47.7,30.15,SE,143,9.0,11.0,87,0.00,,---,0.00,VWS V14.01,2013-02-19 10:50:00,
2013-02-19 05:55:00,51.5,47.8,30.15,SE,143,9.0,11.0,87,0.00,,---,0.00,VWS V14.01,2013-02-19 10:55:00,
2013-02-19 06:00:00,51.7,47.7,30.15,SE,143,9.0,12.0,86,0.00,,---,0.00,VWS V14.01,2013-02-19 11:00:00,
2013-02-19 06:05:00,51.9,47.5,30.15,SE,143,10.0,11.0,85,0.00,,---,0.00,VWS V14.01,2013-02-19 11:05:00,
2013-02-19 06:10:00,52.0,47.6,30.15,SE,143,10.0,11.0,85,0.00,,---,0.00,VWS V14.01,2013-02-19 11:10:00,
2013-02-19 06:15:00,52.1,47.4,30.15,SE,143,9.0,11.0,84,0.00,,---,0.00,VWS V14.01,2013-02-19 11:15:00,
2013-02-19 06:20:00,52.1,47.4,30.15,SE,143,9.0,10.0,84,0.00,,---,0.00,VWS V14.01,2013-02-19 11:20:00,
2013-02-19 06:25:00,52.2,47.5,30.15,SE,143,9.0,10.0,84,0.00,,---,0.00,VWS V14.01,2013-02-19 11:25:00,
2013-02-19 06:30:00,52.2,47.5,30.15,SE,143,7.0,10.0,84,0.00,,---,0.00,VWS V14.01,2013-02-19 11:30:00,
2013-02-19 06:35:00,52.2,47.5,30.14,SE,143,9.0,9.0,84,0.00,,---,0.00,VWS V14.01,2013-02-19 11:35:00,
2013-02-19 06:40:00,52.1,47.4,30.14,SE,143,7.0,9.0,84,0.00,,---,0.00,VWS V14.01,2013-02-19 11:40:00,
2013-02-19 06:45:00,52.1,47.4,30.14,SE,143,9.0,9.0,84,0.00,,---,0.00,VWS V14.01,2013-02-19 11:45:00,
2013-02-19 06:50:00,52.1,47.4,30.13,SE,143,7.0,9.0,84,0.00,,---,0.00,VWS V14.01,2013-02-19 11:50:00,
2013-02-19 06:55:00,52.1,47.7,30.13,SE,142,7.0,10.0,85,0.00,,---,0.00,VWS V14.01,2013-02-19 11:55:00,
2013-02-19 07:00:00,52.2,47.5,30.13,SE,140,7.0,10.0,84,0.00,,---,0.00,VWS V14.01,2013-02-19 12:00:00,
2013-02-19 07:05:00,52.2,47.5,30.12,SE,139,8.0,10.0,84,0.00,,---,0.00,VWS V14.01,2013-02-19 12:05:00,
2013-02-19 07:10:00,52.3,47.9,30.12,SE,138,7.0,10.0,85,0.00,,---,0.00,VWS V14.01,2013-02-19 12:10:00,
2013-02-19 07:15:00,52.4,48.0,30.12,SE,138,7.0,9.0,85,0.00,,---,0.00,VWS V14.01,2013-02-19 12:15:00,
2013-02-19 07:20:00,52.3,47.9,30.13,SE,138,6.0,9.0,85,0.00,,---,0.00,VWS V14.01,2013-02-19 12:20:00,
2013-02-19 07:25:00,52.3,47.9,30.13,SE,138,6.0,9.0,85,0.00,,---,0.00,VWS V14.01,2013-02-19 12:25:00,
2013-02-19 07:30:00,52.3,48.2,30.13,SE,138,6.0,8.0,86,0.00,,---,0.00,VWS V14.01,2013-02-19 12:30:00,
2013-02-19 07:35:00,52.3,48.2,30.12,SE,138,7.0,9.0,86,0.00,,---,0.00,VWS V14.01,2013-02-19 12:35:00,
2013-02-19 07:40:00,52.4,48.3,30.12,SE,138,9.0,10.0,86,0.00,,---,0.00,VWS V14.01,2013-02-19 12:40:00,
2013-02-19 07:45:00,52.6,48.2,30.12,SE,136,9.0,10.0,85,0.00,,---,0.00,VWS V14.01,2013-02-19 12:45:00,
2013-02-19 07:50:00,52.6,48.2,30.12,SE,134,10.0,10.0,85,0.00,,---,0.00,VWS V14.01,2013-02-19 12:50:00,
2013-02-19 07:55:00,52.8,48.4,30.12,SE,132,10.0,11.0,85,0.00,,---,0.00,VWS V14.01,2013-02-19 12:55:00,
2013-02-19 08:00:00,52.9,48.5,30.12,SE,132,10.0,11.0,85,0.00,,---,0.00,VWS V14.01,2013-02-19 13:00:00,
2013-02-19 08:05:00,53.0,48.3,30.12,SE,132,8.0,11.0,84,0.00,,---,0.00,VWS V14.01,2013-02-19 13:05:00,
2013-02-19 08:10:00,53.1,48.4,30.12,SE,132,7.0,9.0,84,0.00,,---,0.00,VWS V14.01,2013-02-19 13:10:00,
2013-02-19 08:15:00,53.2,48.8,30.12,SE,132,8.0,9.0,85,0.00,,---,0.00,VWS V14.01,2013-02-19 13:15:00,
2013-02-19 08:20:00,53.2,48.8,30.12,SE,132,9.0,10.0,85,0.00,,---,0.00,VWS V14.01,2013-02-19 13:20:00,
2013-02-19 08:25:00,53.2,48.8,30.12,SE,132,10.0,10.0,85,0.00,,---,0.00,VWS V14.01,2013-02-19 13:25:00,
2013-02-19 08:30:00,53.3,48.9,30.12,SE,132,7.0,10.0,85,0.00,,---,0.00,VWS V14.01,2013-02-19 13:30:00,
2013-02-19 08:35:00,53.3,48.9,30.12,SE,132,7.0,7.0,85,0.00,,---,0.00,VWS V14.01,2013-02-19 13:35:00,
2013-02-19 08:40:00,53.5,49.1,30.12,SE,132,5.0,7.0,85,0.00,,---,0.00,VWS V14.01,2013-02-19 13:40:00,
2013-02-19 08:45:00,53.5,49.1,30.12,SE,132,5.0,6.0,85,0.00,,---,0.00,VWS V14.01,2013-02-19 13:45:00,
2013-02-19 08:50:00,53.2,48.8,30.12,SE,132,5.0,6.0,85,0.00,,---,0.00,VWS V14.01,2013-02-19 13:50:00,
2013-02-19 08:55:00,53.3,49.2,30.12,SE,132,7.0,8.0,86,0.00,,---,0.00,VWS V14.01,2013-02-19 13:55:00,
2013-02-19 09:00:00,53.4,49.3,30.12,SE,132,7.0,9.0,86,0.00,,---,0.00,VWS V14.01,2013-02-19 14:00:00,
2013-02-19 09:05:00,53.3,49.2,30.11,SE,132,7.0,9.0,86,0.00,,---,0.00,VWS V14.01,2013-02-19 14:05:00,
2013-02-19 09:10:00,53.2,49.1,30.11,SE,132,10.0,11.0,86,0.00,,---,0.00,VWS V14.01,2013-02-19 14:10:00,
2013-02-19 09:15:00,53.5,49.4,30.11,SE,132,10.0,11.0,86,0.00,,---,0.00,VWS V14.01,2013-02-19 14:15:00,
2013-02-19 09:20:00,54.1,50.0,30.11,SE,132,10.0,10.0,86,0.00,,---,0.00,VWS V14.01,2013-02-19 14:20:00,
2013-02-19 09:25:00,54.5,50.1,30.11,SE,132,9.0,10.0,85,0.00,,---,0.00,VWS V14.01,2013-02-19 14:25:00,
2013-02-19 09:30:00,54.8,50.4,30.11,SE,136,9.0,11.0,85,0.00,,---,0.00,VWS V14.01,2013-02-19 14:30:00,
2013-02-19 09:35:00,54.8,50.4,30.10,SE,139,6.0,9.0,85,0.00,,---,0.00,VWS V14.01,2013-02-19 14:35:00,
2013-02-19 09:40:00,54.7,50.3,30.10,SSE,153,7.0,7.0,85,0.00,,---,0.00,VWS V14.01,2013-02-19 14:40:00,
2013-02-19 09:45:00,56.3,52.2,30.10,SSW,198,14.0,18.0,86,0.00,,---,0.00,VWS V14.01,2013-02-19 14:45:00,
2013-02-19 09:50:00,57.2,52.4,30.10,SSW,196,13.0,18.0,84,0.00,,---,0.00,VWS V14.01,2013-02-19 14:50:00,
2013-02-19 09:55:00,57.2,52.1,30.10,SSW,207,13.0,16.0,83,0.00,,---,0.00,VWS V14.01,2013-02-19 14:55:00,
2013-02-19 10:00:00,57.5,52.7,30.10,SW,223,22.0,27.0,84,0.01,,---,0.01,VWS V14.01,2013-02-19 15:00:00,
2013-02-19 10:05:00,57.6,52.5,30.10,SW,217,15.0,24.0,83,0.01,,---,0.01,VWS V14.01,2013-02-19 15:05:00,
2013-02-19 10:10:00,57.0,52.5,30.10,SW,215,16.0,18.0,85,0.01,,---,0.01,VWS V14.01,2013-02-19 15:10:00,
2013-02-19 10:15:00,56.8,52.0,30.10,SW,219,17.0,17.0,84,0.01,,---,0.01,VWS V14.01,2013-02-19 15:15:00,
2013-02-19 10:20:00,56.6,52.2,30.10,SSW,213,14.0,17.0,85,0.01,,---,0.01,VWS V14.01,2013-02-19 15:20:00,
2013-02-19 10:25:00,56.9,52.4,30.10,SSW,202,17.0,19.0,85,0.01,,---,0.01,VWS V14.01,2013-02-19 15:25:00,
2013-02-19 10:30:00,57.1,52.6,30.10,SSW,205,15.0,19.0,85,0.01,,---,0.01,VWS V14.01,2013-02-19 15:30:00,
2013-02-19 10:35:00,57.1,52.6,30.09,SSW,202,14.0,18.0,85,0.01,,---,0.01,VWS V14.01,2013-02-19 15:35:00,
2013-02-19 10:40:00,57.0,52.5,30.09,SSW,200,16.0,18.0,85,0.01,,---,0.01,VWS V14.01,2013-02-19 15:40:00,
2013-02-19 10:45:00,56.9,52.4,30.09,SSW,200,13.0,17.0,85,0.01,,---,0.01,VWS V14.01,2013-02-19 15:45:00,
2013-02-19 10:50:00,56.8,52.3,30.08,SSW,204,13.0,16.0,85,0.01,,---,0.01,VWS V14.01,2013-02-19 15:50:00,
2013-02-19 10:55:00,56.6,52.2,30.08,SSW,203,14.0,15.0,85,0.01,,---,0.01,VWS V14.01,2013-02-19 15:55:00,
2013-02-19 11:00:00,56.8,52.3,30.08,SSW,196,20.0,20.0,85,0.01,,---,0.01,VWS V14.01,2013-02-19 16:00:00,
2013-02-19 11:05:00,57.5,52.7,30.07,SSW,200,18.0,22.0,84,0.00,,---,0.01,VWS V14.01,2013-02-19 16:05:00,
2013-02-19 11:10:00,57.8,52.7,30.07,SSW,203,17.0,21.0,83,0.00,,---,0.01,VWS V14.01,2013-02-19 16:10:00,
2013-02-19 11:15:00,58.0,52.9,30.07,SSW,207,19.0,24.0,83,0.00,,---,0.01,VWS V14.01,2013-02-19 16:15:00,
2013-02-19 11:20:00,57.7,52.6,30.07,SSW,211,17.0,22.0,83,0.00,,---,0.01,VWS V14.01,2013-02-19 16:20:00,
2013-02-19 11:25:00,57.3,52.8,30.07,SSW,210,17.0,19.0,85,0.00,,---,0.01,VWS V14.01,2013-02-19 16:25:00,
2013-02-19 11:30:00,57.2,52.7,30.07,SSW,211,18.0,19.0,85,0.00,,---,0.01,VWS V14.01,2013-02-19 16:30:00,
2013-02-19 11:35:00,57.1,53.0,30.06,SSW,207,17.0,19.0,86,0.00,,---,0.01,VWS V14.01,2013-02-19 16:35:00,
2013-02-19 11:40:00,57.2,53.1,30.06,SSW,205,15.0,18.0,86,0.00,,---,0.01,VWS V14.01,2013-02-19 16:40:00,
2013-02-19 11:45:00,57.2,53.1,30.06,SSW,198,17.0,18.0,86,0.00,,---,0.01,VWS V14.01,2013-02-19 16:45:00,
2013-02-19 11:50:00,57.3,53.2,30.05,SSW,195,19.0,21.0,86,0.00,,---,0.01,VWS V14.01,2013-02-19 16:50:00,
2013-02-19 11:55:00,57.5,53.3,30.05,SSW,194,16.0,24.0,86,0.00,,---,0.01,VWS V14.01,2013-02-19 16:55:00,
2013-02-19 12:00:00,57.4,53.2,30.05,South,182,16.0,20.0,86,0.00,,---,0.01,VWS V14.01,2013-02-19 17:00:00,
2013-02-19 12:05:00,57.6,53.8,30.02,South,188,13.0,20.0,87,0.00,,---,0.01,VWS V14.01,2013-02-19 17:05:00,
2013-02-19 12:10:00,57.7,53.9,30.02,South,182,11.0,18.0,87,0.00,,---,0.01,VWS V14.01,2013-02-19 17:10:00,
2013-02-19 12:15:00,57.8,54.0,30.02,SSW,196,16.0,20.0,87,0.00,,---,0.01,VWS V14.01,2013-02-19 17:15:00,
2013-02-19 12:20:00,57.7,53.5,30.01,SSW,195,17.0,22.0,86,0.00,,---,0.01,VWS V14.01,2013-02-19 17:20:00,
2013-02-19 12:25:00,57.5,53.7,30.01,SSW,199,15.0,19.0,87,0.00,,---,0.01,VWS V14.01,2013-02-19 17:25:00,
2013-02-19 12:30:00,57.3,53.5,30.01,SSW,202,15.0,18.0,87,0.00,,---,0.01,VWS V14.01,2013-02-19 17:30:00,
2013-02-19 12:35:00,57.3,53.5,30.00,SSW,196,15.0,18.0,87,0.00,,---,0.01,VWS V14.01,2013-02-19 17:35:00,
2013-02-19 12:40:00,57.4,53.6,30.00,South,191,15.0,17.0,87,0.00,,---,0.01,VWS V14.01,2013-02-19 17:40:00,
2013-02-19 12:45:00,57.3,53.5,30.00,South,189,15.0,18.0,87,0.00,,---,0.01,VWS V14.01,2013-02-19 17:45:00,
2013-02-19 12:50:00,57.4,53.6,29.99,SSW,192,16.0,17.0,87,0.00,,---,0.01,VWS V14.01,2013-02-19 17:50:00,
2013-02-19 12:55:00,57.4,53.6,29.99,South,187,13.0,17.0,87,0.00,,---,0.01,VWS V14.01,2013-02-19 17:55:00,
2013-02-19 13:00:00,57.5,53.7,29.99,South,186,14.0,16.0,87,0.00,,---,0.01,VWS V14.01,2013-02-19 18:00:00,
2013-02-19 13:05:00,57.5,53.7,29.98,SSW,196,15.0,18.0,87,0.00,,---,0.01,VWS V14.01,2013-02-19 18:05:00,
2013-02-19 13:10:00,57.5,53.7,29.98,SSW,199,14.0,17.0,87,0.00,,---,0.01,VWS V14.01,2013-02-19 18:10:00,
2013-02-19 13:15:00,57.3,53.5,29.98,SSW,207,15.0,20.0,87,0.01,,---,0.02,VWS V14.01,2013-02-19 18:15:00,
2013-02-19 13:20:00,57.5,53.7,29.98,SSW,213,18.0,22.0,87,0.02,,---,0.03,VWS V14.01,2013-02-19 18:20:00,
2013-02-19 13:25:00,58.3,54.5,29.98,SW,222,27.0,35.0,87,0.03,,---,0.04,VWS V14.01,2013-02-19 18:25:00,
2013-02-19 13:30:00,58.1,53.9,29.98,SW,221,22.0,30.0,86,0.05,,---,0.06,VWS V14.01,2013-02-19 18:30:00,
2013-02-19 13:35:00,57.1,53.6,29.98,WSW,242,25.0,30.0,88,0.09,,---,0.10,VWS V14.01,2013-02-19 18:35:00,
2013-02-19 13:40:00,56.3,53.1,29.98,WSW,248,21.0,30.0,89,0.11,,---,0.12,VWS V14.01,2013-02-19 18:40:00,
2013-02-19 13:45:00,55.8,52.9,29.98,WSW,240,23.0,27.0,90,0.12,,---,0.13,VWS V14.01,2013-02-19 18:45:00,
2013-02-19 13:50:00,55.8,52.9,29.98,WSW,240,23.0,23.0,90,0.12,,---,0.13,VWS V14.01,2013-02-19 18:50:00,
2013-02-19 13:55:00,55.0,52.7,29.98,SW,232,27.0,32.0,92,0.15,,---,0.16,VWS V14.01,2013-02-19 18:55:00,
2013-02-19 14:00:00,54.7,52.4,29.98,WSW,238,33.0,33.0,92,0.16,,---,0.17,VWS V14.01,2013-02-19 19:00:00,
2013-02-19 14:05:00,54.4,51.8,29.98,WSW,238,22.0,33.0,91,0.18,,---,0.19,VWS V14.01,2013-02-19 19:05:00,
2013-02-19 14:10:00,54.3,52.0,29.98,SW,235,23.0,25.0,92,0.19,,---,0.20,VWS V14.01,2013-02-19 19:10:00,
2013-02-19 14:15:00,53.9,51.6,29.98,SW,232,22.0,28.0,92,0.22,,---,0.23,VWS V14.01,2013-02-19 19:15:00,
2013-02-19 14:20:00,53.6,51.3,29.97,SW,229,25.0,27.0,92,0.23,,---,0.25,VWS V14.01,2013-02-19 19:20:00,
2013-02-19 14:25:00,53.6,51.6,29.97,SW,225,22.0,24.0,93,0.23,,---,0.26,VWS V14.01,2013-02-19 19:25:00,
2013-02-19 14:30:00,53.6,51.6,29.97,SW,224,18.0,23.0,93,0.21,,---,0.26,VWS V14.01,2013-02-19 19:30:00,
2013-02-19 14:35:00,53.8,51.8,29.95,SW,216,19.0,21.0,93,0.20,,---,0.26,VWS V14.01,2013-02-19 19:35:00,
2013-02-19 14:40:00,53.9,51.9,29.95,SSW,206,18.0,21.0,93,0.16,,---,0.27,VWS V14.01,2013-02-19 19:40:00,
2013-02-19 14:45:00,54.0,52.0,29.95,SSW,208,17.0,21.0,93,0.14,,---,0.27,VWS V14.01,2013-02-19 19:45:00,
2013-02-19 14:50:00,54.2,52.2,29.93,SSW,202,19.0,23.0,93,0.14,,---,0.27,VWS V14.01,2013-02-19 19:50:00,
2013-02-19 14:55:00,54.2,52.2,29.93,SSW,204,17.0,22.0,93,0.14,,---,0.27,VWS V14.01,2013-02-19 19:55:00,
2013-02-19 15:00:00,54.4,52.4,29.93,SSW,206,17.0,22.0,93,0.11,,---,0.27,VWS V14.01,2013-02-19 20:00:00,
2013-02-19 15:05:00,54.6,52.3,29.92,SSW,201,19.0,24.0,92,0.10,,---,0.27,VWS V14.01,2013-02-19 20:05:00,
2013-02-19 15:10:00,54.7,52.4,29.92,SSW,200,20.0,22.0,92,0.08,,---,0.27,VWS V14.01,2013-02-19 20:10:00,
2013-02-19 15:15:00,55.0,52.4,29.92,SSW,199,22.0,25.0,91,0.06,,---,0.27,VWS V14.01,2013-02-19 20:15:00,
2013-02-19 15:20:00,55.3,52.4,29.91,SSW,195,22.0,23.0,90,0.04,,---,0.27,VWS V14.01,2013-02-19 20:20:00,
2013-02-19 15:25:00,55.4,52.5,29.91,SSW,199,19.0,23.0,90,0.02,,---,0.27,VWS V14.01,2013-02-19 20:25:00,
2013-02-19 15:30:00,55.5,52.3,29.91,SSW,200,20.0,23.0,89,0.01,,---,0.27,VWS V14.01,2013-02-19 20:30:00,
2013-02-19 15:35:00,55.7,52.5,29.90,SSW,202,19.0,22.0,89,0.01,,---,0.27,VWS V14.01,2013-02-19 20:35:00,
2013-02-19 15:40:00,55.7,52.5,29.90,SSW,202,19.0,19.0,89,0.01,,---,0.27,VWS V14.01,2013-02-19 20:40:00,
2013-02-19 15:45:00,55.7,52.5,29.90,SSW,202,19.0,19.0,89,0.00,,---,0.27,VWS V14.01,2013-02-19 20:45:00,
2013-02-19 15:50:00,55.7,52.5,29.90,SSW,202,19.0,19.0,89,0.00,,---,0.27,VWS V14.01,2013-02-19 20:50:00,
2013-02-19 15:55:00,55.7,52.5,29.90,SSW,202,19.0,19.0,89,0.00,,---,0.27,VWS V14.01,2013-02-19 20:55:00,
2013-02-19 16:00:00,55.7,52.5,29.90,SSW,202,19.0,19.0,89,0.00,,---,0.27,VWS V14.01,2013-02-19 21:00:00,
2013-02-19 16:05:00,55.7,52.5,29.89,SSW,202,19.0,19.0,89,0.00,,---,0.27,VWS V14.01,2013-02-19 21:05:00,
2013-02-19 16:10:00,55.7,52.5,29.89,SSW,202,19.0,19.0,89,0.00,,---,0.27,VWS V14.01,2013-02-19 21:10:00,
2013-02-19 16:15:00,55.7,52.5,29.89,SSW,202,19.0,19.0,89,0.00,,---,0.27,VWS V14.01,2013-02-19 21:15:00,
2013-02-19 16:20:00,57.2,52.1,29.89,SW,225,21.0,25.0,83,0.00,,---,0.27,VWS V14.01,2013-02-19 21:20:00,
2013-02-19 16:25:00,57.0,51.9,29.89,SW,223,20.0,23.0,83,0.00,,---,0.27,VWS V14.01,2013-02-19 21:25:00,
2013-02-19 16:30:00,57.0,52.2,29.89,SW,227,22.0,25.0,84,0.00,,---,0.27,VWS V14.01,2013-02-19 21:30:00,
2013-02-19 16:35:00,57.2,52.1,29.88,SW,228,25.0,27.0,83,0.00,,---,0.27,VWS V14.01,2013-02-19 21:35:00,
2013-02-19 16:40:00,56.9,52.1,29.88,SW,231,22.0,25.0,84,0.00,,---,0.27,VWS V14.01,2013-02-19 21:40:00,
2013-02-19 16:45:00,56.8,52.0,29.88,WSW,239,24.0,25.0,84,0.00,,---,0.27,VWS V14.01,2013-02-19 21:45:00,
2013-02-19 16:50:00,56.7,51.9,29.88,SW,234,22.0,27.0,84,0.00,,---,0.27,VWS V14.01,2013-02-19 21:50:00,
2013-02-19 16:55:00,56.6,51.8,29.88,SW,230,23.0,26.0,84,0.00,,---,0.27,VWS V14.01,2013-02-19 21:55:00,
2013-02-19 17:00:00,56.5,51.7,29.88,SW,228,22.0,25.0,84,0.00,,---,0.27,VWS V14.01,2013-02-19 22:00:00,
2013-02-19 17:05:00,56.6,51.8,29.88,SW,232,24.0,29.0,84,0.00,,---,0.27,VWS V14.01,2013-02-19 22:05:00,
2013-02-19 17:10:00,56.5,52.0,29.88,SW,230,27.0,27.0,85,0.00,,---,0.27,VWS V14.01,2013-02-19 22:10:00,
2013-02-19 17:15:00,56.5,52.0,29.88,SW,232,24.0,27.0,85,0.00,,---,0.27,VWS V14.01,2013-02-19 22:15:00,
2013-02-19 17:20:00,56.5,52.0,29.88,SW,232,25.0,28.0,85,0.00,,---,0.27,VWS V14.01,2013-02-19 22:20:00,
2013-02-19 17:25:00,56.5,52.0,29.88,SW,232,22.0,28.0,85,0.00,,---,0.27,VWS V14.01,2013-02-19 22:25:00,
2013-02-19 17:30:00,56.3,51.9,29.88,SW,235,22.0,27.0,85,0.00,,---,0.27,VWS V14.01,2013-02-19 22:30:00,
2013-02-19 17:35:00,56.2,51.8,29.88,WSW,238,22.0,27.0,85,0.00,,---,0.27,VWS V14.01,2013-02-19 22:35:00,
2013-02-19 17:40:00,56.1,51.7,29.88,SW,229,23.0,27.0,85,0.00,,---,0.27,VWS V14.01,2013-02-19 22:40:00,
2013-02-19 17:45:00,56.0,51.9,29.88,SW,229,22.0,26.0,86,0.00,,---,0.27,VWS V14.01,2013-02-19 22:45:00,
2013-02-19 17:50:00,56.0,51.9,29.89,SW,232,24.0,27.0,86,0.00,,---,0.27,VWS V14.01,2013-02-19 22:50:00,
2013-02-19 17:55:00,56.0,51.9,29.89,SW,235,21.0,25.0,86,0.00,,---,0.27,VWS V14.01,2013-02-19 22:55:00,
2013-02-19 18:00:00,56.0,51.9,29.89,WSW,238,21.0,26.0,86,0.00,,---,0.27,VWS V14.01,2013-02-19 23:00:00,
2013-02-19 18:05:00,56.0,51.9,29.89,WSW,238,23.0,30.0,86,0.00,,---,0.27,VWS V14.01,2013-02-19 23:05:00,
2013-02-19 18:10:00,56.1,51.7,29.89,SW,235,24.0,30.0,85,0.00,,---,0.27,VWS V14.01,2013-02-19 23:10:00,
2013-02-19 18:15:00,56.1,51.7,29.89,SW,235,26.0,31.0,85,0.00,,---,0.27,VWS V14.01,2013-02-19 23:15:00,
2013-02-19 18:20:00,55.9,51.5,29.90,WSW,240,27.0,28.0,85,0.00,,---,0.27,VWS V14.01,2013-02-19 23:20:00,
2013-02-19 18:25:00,56.1,51.3,29.90,WSW,247,31.0,33.0,84,0.00,,---,0.27,VWS V14.01,2013-02-19 23:25:00,
2013-02-19 18:30:00,56.1,51.3,29.90,WSW,246,25.0,33.0,84,0.00,,---,0.27,VWS V14.01,2013-02-19 23:30:00,
2013-02-19 18:35:00,56.2,50.8,29.89,WSW,251,34.0,36.0,82,0.00,,---,0.27,VWS V14.01,2013-02-19 23:35:00,
2013-02-19 18:40:00,56.2,50.8,29.89,SW,236,28.0,40.0,82,0.00,,---,0.27,VWS V14.01,2013-02-19 23:40:00,
2013-02-19 18:45:00,56.0,50.9,29.89,WSW,240,32.0,38.0,83,0.00,,---,0.27,VWS V14.01,2013-02-19 23:45:00,
2013-02-19 18:50:00,56.1,51.0,29.89,WSW,237,36.0,42.0,83,0.00,,---,0.27,VWS V14.01,2013-02-19 23:50:00,
2013-02-19 18:55:00,56.1,51.0,29.89,WSW,244,32.0,38.0,83,0.00,,---,0.27,VWS V14.01,2013-02-19 23:55:00,
2013-02-19 19:00:00,56.3,51.2,29.89,WSW,237,28.0,38.0,83,0.00,,---,0.27,VWS V14.01,2013-02-20 00:00:00,
2013-02-19 19:05:00,56.3,51.5,29.88,SW,236,31.0,39.0,84,0.00,,---,0.27,VWS V14.01,2013-02-20 00:05:00,
2013-02-19 19:10:00,56.3,51.9,29.88,SW,234,33.0,40.0,85,0.00,,---,0.27,VWS V14.01,2013-02-20 00:10:00,
2013-02-19 19:15:00,56.3,52.2,29.88,SW,231,33.0,39.0,86,0.00,,---,0.27,VWS V14.01,2013-02-20 00:15:00,
2013-02-19 19:20:00,56.2,52.4,29.88,WSW,243,26.0,37.0,87,0.00,,---,0.27,VWS V14.01,2013-02-20 00:20:00,
2013-02-19 19:25:00,56.1,52.3,29.88,WSW,240,29.0,35.0,87,0.00,,---,0.27,VWS V14.01,2013-02-20 00:25:00,
2013-02-19 19:30:00,56.0,52.2,29.88,SW,232,30.0,35.0,87,0.00,,---,0.27,VWS V14.01,2013-02-20 00:30:00,
2013-02-19 19:35:00,56.1,52.6,29.88,SW,234,32.0,35.0,88,0.00,,---,0.27,VWS V14.01,2013-02-20 00:35:00,
2013-02-19 19:40:00,56.1,52.9,29.88,WSW,238,26.0,35.0,89,0.00,,---,0.27,VWS V14.01,2013-02-20 00:40:00,
2013-02-19 19:45:00,56.2,53.3,29.88,WSW,244,29.0,34.0,90,0.00,,---,0.27,VWS V14.01,2013-02-20 00:45:00,
2013-02-19 19:50:00,56.0,53.1,29.88,WSW,246,25.0,33.0,90,0.00,,---,0.27,VWS V14.01,2013-02-20 00:50:00,
2013-02-19 19:55:00,55.9,53.3,29.88,WSW,246,29.0,31.0,91,0.00,,---,0.27,VWS V14.01,2013-02-20 00:55:00,
2013-02-19 20:00:00,55.8,53.2,29.88,WSW,244,27.0,32.0,91,0.00,,---,0.27,VWS V14.01,2013-02-20 01:00:00,
2013-02-19 20:05:00,55.8,53.2,29.88,WSW,246,25.0,32.0,91,0.00,,---,0.27,VWS V14.01,2013-02-20 01:05:00,
2013-02-19 20:10:00,55.7,53.1,29.88,WSW,252,31.0,31.0,91,0.00,,---,0.27,VWS V14.01,2013-02-20 01:10:00,
2013-02-19 20:15:00,55.7,53.4,29.88,WSW,244,25.0,31.0,92,0.00,,---,0.27,VWS V14.01,2013-02-20 01:15:00,
2013-02-19 20:20:00,55.5,53.2,29.88,WSW,249,25.0,30.0,92,0.00,,---,0.27,VWS V14.01,2013-02-20 01:20:00,
2013-02-19 20:25:00,55.4,53.1,29.88,WSW,248,25.0,29.0,92,0.00,,---,0.27,VWS V14.01,2013-02-20 01:25:00,
2013-02-19 20:30:00,55.3,53.0,29.88,WSW,241,22.0,30.0,92,0.00,,---,0.27,VWS V14.01,2013-02-20 01:30:00,
2013-02-19 20:35:00,55.3,53.0,29.87,WSW,248,22.0,30.0,92,0.00,,---,0.27,VWS V14.01,2013-02-20 01:35:00,
2013-02-19 20:40:00,55.2,52.9,29.87,WSW,248,22.0,28.0,92,0.00,,---,0.27,VWS V14.01,2013-02-20 01:40:00,
2013-02-19 20:45:00,55.1,52.8,29.87,WSW,247,17.0,25.0,92,0.00,,---,0.27,VWS V14.01,2013-02-20 01:45:00,
2013-02-19 20:50:00,55.1,53.1,29.87,WSW,248,19.0,26.0,93,0.00,,---,0.27,VWS V14.01,2013-02-20 01:50:00,
2013-02-19 20:55:00,55.0,52.7,29.87,WSW,248,20.0,24.0,92,0.00,,---,0.27,VWS V14.01,2013-02-20 01:55:00,
2013-02-19 21:00:00,54.8,52.5,29.87,WSW,245,18.0,24.0,92,0.00,,---,0.27,VWS V14.01,2013-02-20 02:00:00,
2013-02-19 21:05:00,54.8,52.8,29.87,WSW,239,23.0,25.0,93,0.00,,---,0.27,VWS V14.01,2013-02-20 02:05:00,
2013-02-19 21:10:00,54.9,52.9,29.87,WSW,241,19.0,25.0,93,0.00,,---,0.27,VWS V14.01,2013-02-20 02:10:00,
2013-02-19 21:15:00,54.8,52.8,29.87,WSW,242,22.0,27.0,93,0.00,,---,0.27,VWS V14.01,2013-02-20 02:15:00,
2013-02-19 21:20:00,54.7,52.7,29.87,WSW,244,18.0,22.0,93,0.00,,---,0.27,VWS V14.01,2013-02-20 02:20:00,
2013-02-19 21:25:00,54.6,52.6,29.87,WSW,246,22.0,22.0,93,0.00,,---,0.27,VWS V14.01,2013-02-20 02:25:00,
2013-02-19 21:30:00,54.6,52.6,29.87,WSW,244,18.0,23.0,93,0.00,,---,0.27,VWS V14.01,2013-02-20 02:30:00,
2013-02-19 21:35:00,54.6,52.6,29.88,WSW,245,18.0,24.0,93,0.00,,---,0.27,VWS V14.01,2013-02-20 02:35:00,
2013-02-19 21:40:00,54.5,52.5,29.88,WSW,250,21.0,22.0,93,0.00,,---,0.27,VWS V14.01,2013-02-20 02:40:00,
2013-02-19 21:45:00,54.4,52.4,29.88,WSW,254,17.0,22.0,93,0.00,,---,0.27,VWS V14.01,2013-02-20 02:45:00,
2013-02-19 21:50:00,54.2,52.2,29.88,West,261,21.0,22.0,93,0.00,,---,0.27,VWS V14.01,2013-02-20 02:50:00,
2013-02-19 21:55:00,54.1,52.1,29.88,WSW,258,18.0,22.0,93,0.00,,---,0.27,VWS V14.01,2013-02-20 02:55:00,
2013-02-19 22:00:00,54.0,52.0,29.88,West,259,15.0,20.0,93,0.00,,---,0.27,VWS V14.01,2013-02-20 03:00:00,
2013-02-19 22:05:00,54.0,52.0,29.89,West,259,15.0,22.0,93,0.00,,---,0.27,VWS V14.01,2013-02-20 03:05:00,
2013-02-19 22:10:00,53.9,51.9,29.89,West,263,18.0,21.0,93,0.00,,---,0.27,VWS V14.01,2013-02-20 03:10:00,
2013-02-19 22:15:00,53.7,51.7,29.89,West,274,12.0,18.0,93,0.00,,---,0.27,VWS V14.01,2013-02-20 03:15:00,
2013-02-19 22:20:00,53.7,51.4,29.89,West,281,20.0,20.0,92,0.00,,---,0.27,VWS V14.01,2013-02-20 03:20:00,
2013-02-19 22:25:00,53.8,50.6,29.89,West,273,19.0,22.0,89,0.00,,---,0.27,VWS V14.01,2013-02-20 03:25:00,
2013-02-19 22:30:00,54.1,49.7,29.89,WNW,286,15.0,22.0,85,0.00,,---,0.27,VWS V14.01,2013-02-20 03:30:00,
2013-02-19 22:35:00,54.5,48.8,29.89,West,270,17.0,29.0,81,0.00,,---,0.27,VWS V14.01,2013-02-20 03:35:00,
2013-02-19 22:40:00,54.4,48.0,29.89,West,268,17.0,23.0,79,0.00,,---,0.27,VWS V14.01,2013-02-20 03:40:00,
2013-02-19 22:45:00,54.2,47.5,29.89,WNW,285,10.0,24.0,78,0.00,,---,0.27,VWS V14.01,2013-02-20 03:45:00,
2013-02-19 22:50:00,53.9,47.5,29.90,NW,316,15.0,20.0,79,0.00,,---,0.27,VWS V14.01,2013-02-20 03:50:00,
2013-02-19 22:55:00,53.7,46.7,29.90,WNW,294,9.0,23.0,77,0.00,,---,0.27,VWS V14.01,2013-02-20 03:55:00,
2013-02-19 23:00:00,53.5,46.1,29.90,WNW,289,13.0,20.0,76,0.00,,---,0.27,VWS V14.01,2013-02-20 04:00:00,
2013-02-19 23:05:00,53.2,45.8,29.90,West,276,10.0,20.0,76,0.00,,---,0.27,VWS V14.01,2013-02-20 04:05:00,
2013-02-19 23:10:00,53.0,45.7,29.90,West,269,13.0,21.0,76,0.00,,---,0.27,VWS V14.01,2013-02-20 04:10:00,
2013-02-19 23:15:00,52.9,45.2,29.90,WNW,289,14.0,20.0,75,0.00,,---,0.27,VWS V14.01,2013-02-20 04:15:00,
2013-02-19 23:20:00,52.7,45.0,29.91,WNW,294,6.0,17.0,75,0.00,,---,0.27,VWS V14.01,2013-02-20 04:20:00,
2013-02-19 23:25:00,52.5,45.2,29.91,West,276,16.0,21.0,76,0.00,,---,0.27,VWS V14.01,2013-02-20 04:25:00,
2013-02-19 23:30:00,52.4,45.1,29.91,West,273,15.0,20.0,76,0.00,,---,0.27,VWS V14.01,2013-02-20 04:30:00,
2013-02-19 23:35:00,52.2,44.9,29.91,WNW,294,9.0,18.0,76,0.00,,---,0.27,VWS V14.01,2013-02-20 04:35:00,
2013-02-19 23:40:00,51.9,44.6,29.91,West,276,15.0,19.0,76,0.00,,---,0.27,VWS V14.01,2013-02-20 04:40:00,
2013-02-19 23:45:00,51.8,44.8,29.91,WNW,291,8.0,17.0,77,0.00,,---,0.27,VWS V14.01,2013-02-20 04:45:00,
2013-02-19 23:50:00,51.5,44.5,29.91,WNW,295,10.0,14.0,77,0.00,,---,0.27,VWS V14.01,2013-02-20 04:50:00,
2013-02-19 23:55:00,51.4,44.4,29.91,WNW,300,13.0,18.0,77,0.00,,---,0.27,VWS V14.01,2013-02-20 04:55:00,